Torna al catalogo

STARLINK-2523

AttivoComunicazioniVLEO
NORAD 48306·PAYLOAD·🇺🇸 United States

Lanciato Apr 29, 2021 da Cape Canaveral Space Force Station

Loading…

Prossimi Passaggi (prossime 24 ore)

TLE

AggiornatoSource: CelesTrak SupGP

Epoca: Sep 14, 2026, 22:08 UTC

1 48306C 21036AG  26257.92270833  .00034644  00000+0  11146-2 0  2571
2 48306  53.1581 298.3766 0001027  92.4890 279.4520 15.31669849    11

Traccia STARLINK-2523 in tempo reale con AllMySat

Download on the App Store